Terminal Aerodrome Forecast
Issued by NWS Salt Lake City, UT

Home | Current Version | Previous Version | Text Only | Print | Product List | Glossary On
Versions: 1 2 3 4 5 6 7 8 9 10 11 12 13 14 15 16 17 18 19 20 21 22 23 24 25 26 27 28 29 30 31 32 33 34 35 36 37 38 39 40 41 42 43 44 45 46 47 48 49 50
000
FTUS45 KSLC 221651 AAB
TAFSLC
TAF AMD
KSLC 221651Z 2217/2318 17016G26KT P6SM -SHRA SCT030 BKN060
     FM222300 31014G22KT P6SM -RA SCT020 BKN040
     FM230100 31014G22KT 1SM -SN BR BKN010 OVC020
     FM230400 31010KT 5SM -SHSN BR BKN015 OVC025
     FM230600 33011KT P6SM VCSH SCT030 BKN040=

USA.gov is the U.S. government's official web portal to all federal, state and local government web resources and services.